TimeCST,TemperatureF,Dew PointF,Humidity,Sea Level PressureIn,VisibilityMPH,Wind Direction,Wind SpeedMPH,Gust SpeedMPH,PrecipitationIn,Events,Conditions,WindDirDegrees,DateUTC
12:15 AM,26.1,23.0,88,30.25,4.0,North,11.5,-,0.02,,Overcast,360,2013-12-06 06:15:00
12:49 AM,24.8,21.2,86,30.23,5.0,NNE,12.7,-,0.06,,Overcast,20,2013-12-06 06:49:00
12:53 AM,25.0,21.9,88,30.24,5.0,NNE,12.7,-,0.07,,Overcast,20,2013-12-06 06:53:00
1:53 AM,25.0,21.0,85,30.25,6.0,North,13.8,-,0.04,,Overcast,10,2013-12-06 07:53:00
2:06 AM,25.0,21.0,85,30.24,6.0,North,13.8,-,0.00,,Overcast,10,2013-12-06 08:06:00
3:53 AM,24.1,19.9,84,30.23,7.0,North,18.4,28.8,0.00,,Overcast,10,2013-12-06 09:53:00
4:02 AM,24.1,19.9,84,30.21,5.0,North,17.3,-,0.01,,Overcast,10,2013-12-06 10:02:00
4:09 AM,24.1,19.9,84,30.22,4.0,North,16.1,-,0.01,,Overcast,10,2013-12-06 10:09:00
4:53 AM,24.1,19.9,84,30.25,5.0,North,15.0,-,0.03,,Overcast,10,2013-12-06 10:53:00
5:07 AM,24.1,19.9,84,30.23,6.0,NNE,17.3,-,0.01,Snow,Light Snow,20,2013-12-06 11:07:00
5:26 AM,23.0,19.9,88,30.25,2.5,North,15.0,-,0.03,Snow,Light Snow,360,2013-12-06 11:26:00
5:39 AM,23.0,19.9,88,30.27,1.5,North,15.0,-,0.04,Snow,Light Snow,360,2013-12-06 11:39:00
5:53 AM,23.0,19.9,88,30.27,1.0,North,17.3,-,0.04,Snow,Light Snow,10,2013-12-06 11:53:00
6:16 AM,23.0,19.9,88,30.27,1.0,North,12.7,-,0.01,Snow,Light Snow,360,2013-12-06 12:16:00
6:25 AM,23.0,19.9,88,30.26,0.8,North,17.3,-,0.02,Snow,Light Snow,10,2013-12-06 12:25:00
6:45 AM,21.9,19.0,89,30.26,0.5,North,15.0,-,0.02,Fog,Light Freezing Fog,10,2013-12-06 12:45:00
6:53 AM,21.9,19.9,92,30.28,0.5,North,11.5,-,0.03,Fog,Light Freezing Fog,360,2013-12-06 12:53:00
7:05 AM,21.9,19.0,89,30.27,1.0,North,16.1,-,N/A,,Mist,10,2013-12-06 13:05:00
7:41 AM,21.9,19.0,89,30.27,0.5,North,16.1,-,0.01,Fog,Light Freezing Fog,10,2013-12-06 13:41:00
7:53 AM,21.9,19.0,89,30.30,0.5,North,15.0,-,0.01,Fog,Light Freezing Fog,10,2013-12-06 13:53:00
8:03 AM,21.9,19.0,89,30.30,0.2,North,12.7,-,N/A,Fog,Light Freezing Fog,360,2013-12-06 14:03:00
8:16 AM,21.9,19.0,89,30.29,0.5,North,15.0,-,N/A,Fog,Light Freezing Fog,10,2013-12-06 14:16:00
8:24 AM,21.9,19.0,89,30.30,0.2,North,15.0,-,N/A,Fog,Light Freezing Fog,10,2013-12-06 14:24:00
8:35 AM,21.9,19.0,89,30.31,0.5,North,16.1,-,N/A,Fog,Light Freezing Fog,360,2013-12-06 14:35:00
8:42 AM,21.9,19.0,89,30.31,0.2,North,16.1,-,N/A,Fog,Light Freezing Fog,360,2013-12-06 14:42:00
8:53 AM,21.9,19.0,89,30.32,0.2,North,15.0,-,N/A,Fog,Light Freezing Fog,10,2013-12-06 14:53:00
9:31 AM,21.9,19.0,89,30.29,0.5,North,15.0,-,N/A,Fog,Light Freezing Fog,10,2013-12-06 15:31:00
9:46 AM,21.9,19.0,89,30.30,0.5,North,13.8,-,N/A,Fog,Light Freezing Fog,10,2013-12-06 15:46:00
9:53 AM,21.9,19.0,89,30.32,0.5,NNE,16.1,-,N/A,Fog,Light Freezing Fog,20,2013-12-06 15:53:00
10:42 AM,21.9,19.0,89,30.31,1.0,North,15.0,-,N/A,,Mist,10,2013-12-06 16:42:00
10:53 AM,21.9,19.0,89,30.33,1.2,North,16.1,-,0.00,Snow,Light Snow,360,2013-12-06 16:53:00
11:05 AM,21.9,19.0,89,30.32,0.8,North,15.0,-,0.00,Snow,Light Snow,10,2013-12-06 17:05:00
11:28 AM,21.9,19.0,89,30.29,0.5,North,13.8,-,0.00,Fog-Snow,Snow,10,2013-12-06 17:28:00
11:53 AM,21.9,19.0,89,30.30,0.5,North,13.8,-,0.00,Fog-Snow,Snow,10,2013-12-06 17:53:00
12:06 PM,21.9,19.0,89,30.27,0.8,North,19.6,-,0.00,Snow,Light Snow,360,2013-12-06 18:06:00
12:16 PM,23.0,19.0,85,30.27,1.0,North,17.3,-,0.00,Snow,Light Snow,360,2013-12-06 18:16:00
12:33 PM,23.0,19.0,85,30.28,0.8,North,15.0,-,0.00,Snow,Light Snow,360,2013-12-06 18:33:00
12:53 PM,23.0,19.0,85,30.30,1.0,North,15.0,-,0.01,Snow,Light Snow,360,2013-12-06 18:53:00
1:16 PM,23.0,19.0,85,30.30,1.8,North,15.0,-,0.00,Snow,Light Snow,360,2013-12-06 19:16:00
1:44 PM,23.0,18.0,81,30.29,1.0,North,17.3,-,0.00,Snow,Light Snow,10,2013-12-06 19:44:00
1:53 PM,21.9,18.0,85,30.29,1.0,North,16.1,-,0.00,Snow,Light Snow,10,2013-12-06 19:53:00
2:30 PM,21.9,18.0,85,30.30,0.8,North,16.1,-,0.00,Snow,Light Snow,360,2013-12-06 20:30:00
2:53 PM,21.9,18.0,85,30.34,0.5,North,20.7,25.3,0.00,Fog-Snow,Snow,360,2013-12-06 20:53:00
3:28 PM,21.9,18.0,85,30.34,1.2,North,12.7,-,0.00,Snow,Light Snow,350,2013-12-06 21:28:00
3:49 PM,21.2,17.6,86,30.34,1.5,North,16.1,-,0.00,Snow,Light Snow,10,2013-12-06 21:49:00
3:53 PM,21.9,17.1,82,30.35,1.8,North,13.8,-,0.00,Snow,Light Snow,10,2013-12-06 21:53:00
4:14 PM,21.9,17.1,82,30.33,2.5,North,18.4,-,0.00,Snow,Light Snow,10,2013-12-06 22:14:00
4:31 PM,21.9,17.1,82,30.34,3.0,North,18.4,-,0.00,Snow,Light Snow,360,2013-12-06 22:31:00
4:53 PM,21.9,17.1,82,30.37,5.0,North,17.3,-,0.00,Snow,Light Snow,10,2013-12-06 22:53:00
5:53 PM,21.9,17.1,82,30.42,10.0,North,15.0,-,0.00,,Overcast,360,2013-12-06 23:53:00
6:25 PM,21.0,16.0,81,30.42,8.0,North,15.0,-,0.00,,Overcast,10,2013-12-07 00:25:00
6:53 PM,21.0,16.0,81,30.45,10.0,North,12.7,-,0.00,,Overcast,360,2013-12-07 00:53:00
7:53 PM,21.0,15.1,78,30.47,10.0,North,12.7,-,N/A,,Overcast,10,2013-12-07 01:53:00
8:53 PM,21.0,14.0,74,30.50,10.0,North,15.0,-,N/A,,Overcast,360,2013-12-07 02:53:00
9:53 PM,19.9,12.9,74,30.52,10.0,North,12.7,-,N/A,,Overcast,360,2013-12-07 03:53:00
10:53 PM,19.9,12.9,74,30.54,10.0,North,13.8,-,N/A,,Overcast,360,2013-12-07 04:53:00
11:53 PM,19.9,10.9,68,30.56,10.0,North,16.1,-,N/A,,Overcast,360,2013-12-07 05:53:00